Nebraska City, NE

10:16 AM CST on January 23, 2018 (GMT -0600)
Nebraska City Municipal

Weather History for KAFK - March, 2014

Change the Weather History Date:

Sunday, March 2, 2014

  Actual Average (KSDA) Record (KSDA)
Temperature  
Mean Temperature 2 °F -  
Max Temperature 5 °F 48 °F 79 °F (1992)
Min Temperature -2 °F 26 °F -4 °F (2014)
Degree Days  
Heating Degree Days 63    
Moisture  
Dew Point -9 °F    
Average Humidity 61    
Maximum Humidity 74    
Minimum Humidity 51    
Precipitation  
Precipitation 0.00 in - - ()
Sea Level Pressure  
Sea Level Pressure 30.52 in    
Wind  
Wind Speed 14 mph (NNE)    
Max Wind Speed 21 mph    
Max Gust Speed 24 mph    
Visibility 9 miles    
Events Snow    
Averages and records for this station are not official NWS values.
T = Trace of Precipitation, MM = Missing Value Source: NWS Daily Summary

Daily Weather History Graph

Daily Weather History Graph

Search for Another Location

Airport or City:

Trip Planner

Search our weather history database for the weather conditions in past years. The results will help you decide how hot, cold, wet, or windy it might be!

Date:

Astronomy

Mar. 02, 2014 Rise Set
Actual Time 6:55 AM CST 6:16 PM CST
Civil Twilight 6:28 AM CST 6:43 PM CST
Nautical Twilight 5:56 AM CST 7:15 PM CST
Astronomical Twilight 5:25 AM CST 7:46 PM CST
Moon 7:27 AM CST (3/2) 8:14 PM CST (3/2)
Length of Visible Light 12h 15m
Length of Day
11h 20m
Waxing Crescent, 3% of the Moon is Illuminated
Mar 2
Waxing Crescent
Mar 8
First Quarter
Mar 16
Full
Mar 23
Last Quarter
Mar 30
New

Hourly Weather History & Observations

Time (CST) Temp. Windchill Dew Point Humidity Pressure Visibility Wind Dir Wind Speed Gust Speed Precip Events Conditions
12:15 AM 2.1 °F -19.0 °F -5.8 °F 69% 30.46 in 10.0 mi NNE 19.6 mph 23.0 mph N/A   Overcast
12:35 AM 1.9 °F -18.7 °F -6.2 °F 69% 30.46 in 7.0 mi NNE 18.4 mph 23.0 mph N/A Snow Light Snow
12:55 AM 1.4 °F -18.2 °F -6.5 °F 69% 30.48 in 4.0 mi NNE 16.1 mph 20.7 mph N/A Snow Light Snow
1:15 AM 1.8 °F -20.0 °F -6.0 °F 70% 30.46 in 5.0 mi NNE 20.7 mph 24.2 mph N/A Snow Light Snow
1:35 AM 1.8 °F -17.8 °F -5.8 °F 71% 30.47 in 7.0 mi NNE 16.1 mph - N/A   Overcast
1:55 AM 2.1 °F -16.6 °F -5.8 °F 69% 30.48 in 10.0 mi NNE 15.0 mph 20.7 mph N/A   Overcast
2:15 AM 1.9 °F -18.1 °F -6.2 °F 69% 30.47 in 10.0 mi NNE 17.3 mph 23.0 mph N/A   Overcast
2:35 AM 1.9 °F -16.2 °F -6.0 °F 69% 30.47 in 10.0 mi NNE 13.8 mph - N/A   Overcast
2:55 AM 1.8 °F -18.4 °F -6.2 °F 69% 30.47 in 10.0 mi North 17.3 mph - N/A   Overcast
3:15 AM 1.8 °F -17.8 °F -4.9 °F 74% 30.47 in 7.0 mi North 16.1 mph - N/A   Overcast
3:35 AM 1.8 °F -15.7 °F -5.6 °F 71% 30.49 in 10.0 mi North 12.7 mph - N/A   Overcast
3:55 AM 1.4 °F -18.2 °F -6.0 °F 71% 30.48 in 10.0 mi North 16.1 mph - N/A   Overcast
4:15 AM 1.2 °F -14.7 °F -6.2 °F 71% 30.49 in 10.0 mi North 10.4 mph - N/A   Overcast
4:35 AM 0.9 °F -18.9 °F -7.1 °F 69% 30.48 in 10.0 mi North 16.1 mph 19.6 mph N/A   Overcast
4:55 AM 0.5 °F -18.7 °F -6.0 °F 74% 30.49 in 4.0 mi North 15.0 mph - N/A   Haze
5:15 AM 0.1 °F -20.5 °F -8.1 °F 68% 30.49 in 10.0 mi North 17.3 mph - N/A   Mostly Cloudy
5:35 AM -0.2 °F -19.6 °F -8.7 °F 67% 30.51 in 10.0 mi North 15.0 mph - N/A   Mostly Cloudy
5:55 AM -0.4 °F -19.9 °F -9.4 °F 66% 30.51 in 10.0 mi North 15.0 mph - N/A   Mostly Cloudy
6:15 AM -0.4 °F -19.2 °F -10.3 °F 63% 30.51 in 10.0 mi North 13.8 mph - N/A   Mostly Cloudy
6:35 AM -0.4 °F -19.2 °F -10.1 °F 64% 30.52 in 10.0 mi North 13.8 mph 19.6 mph N/A   Overcast
6:55 AM -0.2 °F -18.2 °F -9.4 °F 65% 30.52 in 10.0 mi North 12.7 mph - N/A   Overcast
7:15 AM -0.4 °F -20.5 °F -7.8 °F 71% 30.52 in 5.0 mi NNE 16.1 mph - N/A   Haze
7:35 AM -0.2 °F -19.6 °F -7.6 °F 71% 30.52 in 4.0 mi NNE 15.0 mph - N/A   Haze
7:55 AM -0.4 °F -17.6 °F -8.5 °F 69% 30.54 in 7.0 mi NNE 11.5 mph - N/A   Overcast
8:15 AM -0.4 °F -18.4 °F -8.5 °F 69% 30.55 in 10.0 mi North 12.7 mph - N/A   Mostly Cloudy
8:35 AM -0.6 °F -20.1 °F -8.7 °F 69% 30.57 in 5.0 mi North 15.0 mph - N/A   Haze
8:55 AM -0.4 °F -17.6 °F -9.0 °F 67% 30.58 in 7.0 mi North 11.5 mph - N/A   Mostly Cloudy
9:15 AM -0.0 °F -18.0 °F -7.2 °F 72% 30.56 in 4.0 mi NNE 12.7 mph - N/A   Haze
9:35 AM -0.0 °F -18.7 °F -6.9 °F 73% 30.56 in 3.0 mi NNE 13.8 mph - N/A   Haze
9:55 AM -0.0 °F -20.1 °F -8.5 °F 68% 30.55 in 5.0 mi NNE 16.1 mph - N/A   Haze
10:15 AM -0.2 °F -20.9 °F -10.3 °F 62% 30.55 in 10.0 mi NNE 17.3 mph - N/A   Overcast
10:35 AM 0.1 °F -19.8 °F -11.6 °F 58% 30.56 in 10.0 mi NNE 16.1 mph 20.7 mph N/A   Overcast
10:55 AM 0.3 °F -17.5 °F -11.6 °F 57% 30.57 in 10.0 mi North 12.7 mph 19.6 mph N/A   Overcast
11:15 AM 0.1 °F -17.7 °F -12.1 °F 56% 30.56 in 10.0 mi NNE 12.7 mph 17.3 mph N/A   Overcast
11:35 AM 1.2 °F -14.7 °F -11.0 °F 57% 30.56 in 10.0 mi North 10.4 mph 17.3 mph N/A   Mostly Cloudy
11:55 AM 1.2 °F -17.8 °F -11.6 °F 55% 30.55 in 10.0 mi North 15.0 mph 20.7 mph N/A   Mostly Cloudy
12:15 PM 1.8 °F -16.4 °F -11.9 °F 53% 30.54 in 10.0 mi NNE 13.8 mph - N/A   Mostly Cloudy
12:35 PM 1.9 °F -18.1 °F -11.6 °F 53% 30.53 in 10.0 mi NNE 17.3 mph - N/A   Scattered Clouds
12:55 PM 2.7 °F -13.8 °F -10.5 °F 54% 30.55 in 10.0 mi NNE 11.5 mph 17.3 mph N/A   Clear
1:15 PM 3.2 °F -15.3 °F -9.4 °F 56% 30.55 in 10.0 mi North 15.0 mph 18.4 mph N/A   Clear
1:35 PM 3.0 °F -11.5 °F -10.8 °F 53% 30.54 in 10.0 mi North 9.2 mph - N/A   Clear
1:55 PM 3.0 °F -12.5 °F -11.0 °F 52% 30.53 in 10.0 mi NNE 10.4 mph 17.3 mph N/A   Clear
2:15 PM 4.6 °F -11.3 °F -9.9 °F 51% 30.52 in 10.0 mi NNE 11.5 mph - N/A   Clear
2:35 PM 4.1 °F -12.0 °F -10.5 °F 51% 30.51 in 10.0 mi North 11.5 mph 16.1 mph N/A   Clear
2:55 PM 5.0 °F -13.0 °F -9.8 °F 51% 30.50 in 10.0 mi NNE 15.0 mph - N/A   Clear
3:15 PM 5.2 °F -11.4 °F -9.6 °F 51% 30.51 in 10.0 mi North 12.7 mph - N/A   Clear
3:35 PM 5.0 °F -11.6 °F -9.4 °F 52% 30.51 in 10.0 mi North 12.7 mph 16.1 mph N/A   Clear
4:00 PM 4.6 °F -13.4 °F -9.8 °F 51% 30.49 in 10.0 mi NNE 15.0 mph - N/A   Clear
4:15 PM 4.5 °F -9.8 °F -9.8 °F 52% 30.51 in 10.0 mi NNE 9.2 mph - N/A   Clear
4:35 PM 4.3 °F -10.9 °F -9.4 °F 53% 30.50 in 10.0 mi North 10.4 mph 17.3 mph N/A   Clear
4:55 PM 4.1 °F -12.0 °F -8.5 °F 56% 30.49 in 10.0 mi NNE 11.5 mph 16.1 mph N/A   Clear
5:15 PM 4.1 °F -10.2 °F -8.3 °F 56% 30.49 in 10.0 mi North 9.2 mph 16.1 mph N/A   Clear
5:35 PM 3.9 °F -11.3 °F -8.3 °F 57% 30.48 in 10.0 mi North 10.4 mph - N/A   Clear
5:55 PM 3.7 °F -11.6 °F -8.1 °F 58% 30.49 in 10.0 mi North 10.4 mph - N/A   Clear
6:15 PM 3.2 °F -13.1 °F -9.2 °F 56% 30.49 in 10.0 mi North 11.5 mph - N/A   Clear
6:35 PM 3.0 °F -13.3 °F -9.6 °F 56% 30.50 in 10.0 mi North 11.5 mph - N/A   Clear
6:55 PM 3.0 °F -12.5 °F -9.6 °F 56% 30.51 in 10.0 mi North 10.4 mph - N/A   Clear
7:15 PM 2.7 °F -14.5 °F -9.6 °F 57% 30.51 in 10.0 mi North 12.7 mph - N/A   Clear
7:35 PM 2.3 °F -13.4 °F -9.8 °F 57% 30.52 in 10.0 mi North 10.4 mph - N/A   Clear
7:55 PM 2.1 °F -12.6 °F -9.6 °F 58% 30.52 in 10.0 mi North 9.2 mph - N/A   Clear
8:15 PM 2.1 °F -15.2 °F -10.3 °F 56% 30.52 in 10.0 mi North 12.7 mph - N/A   Clear
8:40 PM 1.9 °F -12.9 °F -10.8 °F 55% 30.53 in 10.0 mi NNE 9.2 mph - N/A   Clear
8:55 PM 1.8 °F -10.8 °F -10.7 °F 56% 30.54 in 10.0 mi North 6.9 mph - N/A   Clear
9:15 PM 1.4 °F -8.3 °F -10.3 °F 58% 30.56 in 10.0 mi North 4.6 mph - N/A   Clear
9:35 PM 1.0 °F -10.3 °F -11.0 °F 57% 30.56 in 10.0 mi North 5.8 mph - N/A   Clear
9:55 PM 0.5 °F -12.3 °F -11.6 °F 57% 30.56 in 10.0 mi North 6.9 mph - N/A   Clear
10:15 PM -0.0 °F -13.0 °F -11.0 °F 60% 30.56 in 10.0 mi North 6.9 mph - N/A   Clear
10:35 PM -0.4 °F -12.0 °F -11.9 °F 58% 30.56 in 10.0 mi North 5.8 mph - N/A   Clear
10:55 PM -0.8 °F -15.1 °F -12.5 °F 58% 30.57 in 10.0 mi North 8.1 mph - N/A   Clear
11:15 PM -0.8 °F -15.1 °F -13.0 °F 56% 30.57 in 10.0 mi North 8.1 mph - N/A   Clear
11:35 PM -1.3 °F -14.5 °F -13.0 °F 58% 30.58 in 10.0 mi North 6.9 mph - N/A   Clear
11:55 PM -2.4 °F -10.6 °F -12.8 °F 61% 30.58 in 10.0 mi NNW 3.5 mph - N/A   Clear